FW9017 Weather Reports


time (UTC)temp
C
wind
direction
speed
KPH
gust
KPH
rain 1hr
cm
rain 24hr
cm
rain mn
cm
humidity
%
barometer
mb
20260506201553 15 94 0.0 3.2 0.20 0.36 0.36 97 1007.3
20260506200137 15 168 0.0 8.0 0.13 0.28 0.28 96 1007.3
20260506194617 15 135 1.6 3.2 0.08 0.23 0.23 96 1007.5
20260506193059 15 193 0.0 6.4 0.03 0.18 0.18 96 1007.7
20260506191553 15 173 0.0 8.0 0.03 0.15 0.15 96 1007.8
20260506190057 15 0 0.0 4.8 0.05 0.15 0.15 96 1007.6
20260506184555 15 0 0.0 8.0 0.10 0.15 0.15 96 1007.9
20260506183057 15 161 1.6 6.4 0.13 0.15 0.15 95 1008.2
20260506181559 15 0 1.6 6.4 0.13 0.13 0.13 94 1008.2
20260506180106 15 188 0.0 6.4 0.10 0.10 0.10 93 1008.1
20260506174556 15 189 0.0 4.8 0.05 0.05 0.05 92 1008.1
20260506173116 15 0 0.0 6.4 0.03 0.03 0.03 91 1008.4
20260506171602 16 169 0.0 4.8 0.00 0.00 0.00 87 1008.7
20260506170059 17 174 1.6 6.4 0.00 0.00 0.00 84 1009.3
20260506164556 17 0 0.0 8.0 0.00 0.00 0.00 81 1009.4
20260506163106 18 175 1.6 8.0 0.00 0.00 0.00 79 1009.2
20260506161558 18 175 1.6 6.4 0.00 0.00 0.00 78 1009.2
20260506160106 18 207 1.6 8.0 0.00 0.00 0.00 76 1009.3
20260506154557 18 152 1.6 8.0 0.00 0.00 0.00 76 1009.5
20260506153053 19 185 1.6 8.0 0.00 0.00 0.00 75 1009.5
20260506151556 19 355 1.6 4.8 0.00 0.00 0.00 74 1009.4
20260506144555 18 265 0.0 6.4 0.00 0.00 0.00 76 1009.4
20260506143055 19 194 1.6 6.4 0.00 0.00 0.00 75 1009.7
20260506141558 19 265 1.6 4.8 0.00 0.00 0.00 75 1009.7
20260506140059 18 178 1.6 6.4 0.00 0.00 0.00 79 1009.7
20260506134617 18 0 1.6 11.3 0.00 0.00 0.00 79 1009.9
20260506133056 18 241 0.0 6.4 0.00 0.00 0.00 80 1009.6
20260506131609 17 240 0.0 8.0 0.00 0.00 0.00 83 1009.8
20260506130056 16 0 0.0 3.2 0.00 0.00 0.00 83 1009.7
20260506124554 16 186 1.6 8.0 0.00 0.00 0.00 85 1010.0
20260506123056 16 0 0.0 6.4 0.00 0.00 0.00 85 1010.3
20260506121606 15 0 0.0 11.3 0.00 0.00 0.00 85 1010.5
20260506120054 15 176 0.0 3.2 0.00 0.00 0.00 86 1010.4
20260506114557 15 0 0.0 3.2 0.00 0.00 0.00 87 1010.3
20260506113058 15 0 0.0 6.4 0.00 0.00 0.00 88 1010.6
20260506111611 14 286 0.0 3.2 0.00 0.00 0.00 90 1010.4
20260506110055 13 286 0.0 4.8 0.00 0.00 0.00 90 1010.8
20260506104554 13 288 0.0 4.8 0.00 0.00 0.00 90 1010.5
20260506103104 13 292 1.6 4.8 0.00 0.00 0.00 91 1010.7
20260506101556 13 182 1.6 4.8 0.00 0.00 0.00 91 1010.3
20260506100054 13 0 1.6 6.4 0.00 0.00 0.00 91 1010.3
20260506094557 13 256 1.6 4.8 0.00 0.00 0.00 91 1010.3
20260506093059 13 63 0.0 1.6 0.00 0.00 0.00 90 1010.3
20260506091554 13 0 0.0 4.8 0.00 0.00 0.00 90 1010.4
20260506090056 13 0 0.0 3.2 0.00 0.00 0.00 90 1010.5
20260506084601 13 32 0.0 1.6 0.00 0.00 0.00 89 1010.4
20260506083115 13 17 0.0 6.4 0.00 0.00 0.00 88 1010.5
20260506081555 13 0 1.6 6.4 0.00 0.00 0.00 88 1010.5
20260506073110 13 0 1.6 9.7 0.00 0.00 0.00 86 1010.4
20260506071601 14 290 0.0 6.4 0.00 0.00 0.00 86 1010.5
20260506070126 14 0 0.0 6.4 0.00 0.00 0.00 85 1010.4
20260506061559 15 0 1.6 6.4 0.00 0.00 0.00 83 1010.3
20260506050108 16 0 0.0 4.8 0.00 0.00 0.00 78 1010.7
20260506044558 16 336 0.0 6.4 0.00 0.00 0.00 77 1010.7
20260506043058 16 0 0.0 6.4 0.00 0.00 0.00 76 1010.8
20260506041603 16 0 0.0 3.2 0.00 0.00 0.00 74 1010.8
20260506040059 16 217 0.0 6.4 0.00 0.00 0.00 74 1010.9
20260506034559 16 178 1.6 4.8 0.00 0.00 0.00 74 1010.7
20260506033053 16 168 1.6 8.0 0.00 0.00 0.00 73 1010.7
20260506031557 17 143 1.6 4.8 0.00 0.00 0.00 72 1010.7
20260506030058 17 196 1.6 4.8 0.00 0.00 0.00 72 1010.6
20260506024605 17 196 1.6 4.8 0.00 0.00 0.00 72 1010.6
20260506023055 17 152 1.6 9.7 0.00 0.00 0.00 71 1010.4
20260506021556 17 219 1.6 6.4 0.00 0.00 0.00 71 1010.4
20260506020108 17 148 0.0 6.4 0.00 0.00 0.00 70 1010.4
20260506014610 17 0 0.0 6.4 0.00 0.00 0.00 70 1010.2
20260506013057 17 129 1.6 4.8 0.00 0.00 0.00 69 1010.0
20260506011622 17 159 1.6 6.4 0.00 0.00 0.00 68 1009.9
20260506010056 17 0 1.6 8.0 0.00 0.00 0.00 67 1009.7
20260506004604 18 0 0.0 8.0 0.00 0.00 0.00 66 1009.6
20260506003056 18 182 1.6 9.7 0.00 0.00 0.00 66 1009.3
20260506001601 18 144 1.6 6.4 0.00 0.00 0.00 65 1009.0
20260506000118 19 0 1.6 11.3 0.00 0.00 0.00 64 1008.9
20260505234556 19 180 1.6 8.0 0.00 0.00 0.00 64 1008.8
20260505233059 20 0 1.6 11.3 0.00 0.00 0.00 63 1008.7
20260505231609 20 277 1.6 9.7 0.00 0.00 0.00 62 1008.3
20260505230107 20 156 1.6 9.7 0.00 0.00 0.00 62 1008.2
20260505224558 21 198 1.6 8.0 0.00 0.00 0.00 61 1008.0
20260505223054 21 178 3.2 11.3 0.00 0.00 0.00 61 1007.8
20260505221600 21 0 3.2 9.7 0.00 0.00 0.00 60 1008.1
20260505220057 22 179 3.2 8.0 0.00 0.00 0.00 58 1008.1
20260505214557 22 172 3.2 11.3 0.00 0.00 0.00 57 1008.2
20260505213055 22 0 1.6 16.1 0.00 0.00 0.00 58 1007.9
20260505211555 23 176 1.6 8.0 0.00 0.00 0.00 56 1007.9
20260505210057 23 174 3.2 8.0 0.00 0.00 0.00 56 1008.0
20260505204600 23 225 1.6 20.9 0.00 0.00 0.00 55 1007.8
20260505203102 24 144 1.6 12.9 0.00 0.00 0.00 56 1007.7